Voltar ao catálogo

ATLAS 5 CENTAUR DEB

LostHEO
NORAD 44681·DEBRIS·🇺🇸 United States

Lançado Oct 17, 2018 de Cape Canaveral Space Force Station

Loading…

Próximas Passagens (próximas 24 horas)

TLE

ObsoletoSource: Space-Track

Época: Aug 7, 2024, 01:01 UTC

1 44681U 18079AT  24220.04242725 -.00000076  00000-0  00000-0 0  9998
2 44681  10.9126 115.0995 4610348 156.6732 233.4981  1.72113985 32541

Acompanhe ATLAS 5 CENTAUR DEB em tempo real com AllMySat

Download on the App Store